Погода в Бергене

Норвегия     60°23′01″N   5°20′00″E
темп.,
°C
ветер,
м/с
пор.,
м/с
влажн.,
%
обл.,
%
осадки,
мм/ч
давл.,
гПа
погр.,
м
15 апреля, чт
чт1523:00+4ссв22775 0.0 1033103
02:00+3всв22755 0.0 103396
05:00+3всв22681 0.0 103496
08:00+3всв11651 0.0 1035111
11:00+6с01541 0.0 1036285
14:00+6зюз21575 0.0 1036444
17:00+5з325912 0.0 1035453
20:00+6з116299 0.0 103531
16 апреля, пт
пт1623:00+5вюв1167100 0.0 103511
02:00+5вюв1168100 0.0 103522
05:00+4вюв116799 0.0 103453
08:00+5вюв1164100 0.0 103470
11:00+6ююз126288 0.0 1034203
14:00+7зюз44625 0.0 1034434
17:00+6зюз44593 0.0 1033348
20:00+6зюз11583 0.0 103353
17 апреля, сб
сб1723:00+5в11640 0.0 103410
02:00+5в11660 0.0 103422
05:00+4в22680 0.0 103342
08:00+5всв22640 0.0 103386
11:00+8в12540 0.0 1033186
14:00+8зюз22510 0.0 1032391
17:00+7з33550 0.0 1031320
20:00+7сз11615 0.0 103130
18 апреля, вс
вс1823:00+6всв11650 0.0 103010
02:00+6в22645 0.0 102911
05:00+6вюв226621 0.0 102821
08:00+6в336582 0.0 102744
11:00+9вюв2260100 0.0 102741
14:00+9юз3463100 0.0 102788
17:00+8юз2275100 0.0 102767
20:00+7вюв1187100 0.3 102721
19 апреля, пн
пн1923:00+7в1182100 0.1 102710
02:00+7ю2284100 0.1 102623
05:00+7юв2184100 0.0 102518
08:00+8вюв2279100 0.0 102416
11:00+9ю246976 0.0 1024169
14:00+10ююз4767100 0.1 1024326
17:00+9ююз6977100 0.0 1022252
20:00+8ю4982100 0.0 1022309